Back to catalog

STARLINK-32211

AliveCommunicationsVLEO
NORAD 60270·PAYLOAD·🇺🇸 United States

Launched Jul 27, 2024 from Cape Canaveral Space Force Station

Loading…

Next Passes (next 24 hours)

TLE

FreshSource: CelesTrak SupGP

Epoch: Sep 15, 2026, 02:11 UTC

1 60270C 24131R   26258.09145833 -.00027415  00000+0 -80980-3 0  2588
2 60270  53.1563 250.6991 0001343  98.1816 311.1891 15.34410941    13

Track STARLINK-32211 in real time with AllMySat

Download on the App Store